Powrót do katalogu

STARLINK-4285

AktywnyŁącznośćVLEO
NORAD 52991·PAYLOAD·🇺🇸 United States

Wystrzelony Jul 7, 2022 z Cape Canaveral Space Force Station

Loading…

Następne Przeloty (najbliższe 24 godziny)

TLE

ŚwieżeSource: CelesTrak SupGP

Epoka: Sep 14, 2026, 20:53 UTC

1 52991C 22076F   26257.87062500 -.00029875  00000+0 -88291-3 0  2573
2 52991  53.1570 320.3831 0001386  80.7424 271.8956 15.34396687    13

Śledź STARLINK-4285 w czasie rzeczywistym z AllMySat

Download on the App Store